SGDC

Last updated on Sat Mar 14 2026 00:02:56 GMT+0000 (Coordinated Universal Time)

1 42692U 17023B 26071.73467858 .00000000 00000+0 00000+0 0 9998 2 42692 0.0201 145.5161 0002864 227.2345 347.2567 1.00268994 32442
UTC large
Height (km)
Speed (km/s)
/
Latitude / Longitude
Inclination (degrees)
Orbital Period (minutes)
Azimuth
Elevation
Range (km)
Doppler Factor

Next 0 passes for location: London (51.5072 / 0.1276)

Sorry there are no passes over London.